Regional Weather Roundup
Issued by NWS Charleston, WV

Home | Current Version | Previous Version | Graphics & Text | Print | Product List | Glossary On
Versions: 1 2 3 4 5 6 7 8 9 10 11 12 13 14 15 16 17 18 19 20 21 22 23 24 25 26 27 28 29 30 31 32 33 34 35 36 37 38 39 40 41 42 43 44 45 46 47 48 49 50
928
ASUS41 KRLX 240910
RWRRLX
West Virginia Regional Weather Roundup
National Weather Service Charleston WV
500 AM EDT SUN JUL 24 2016

Note: "fair" indicates few or no clouds below 12,000 feet with no
significant weather and/or obstructions to visibility.

WVZ003-241000-
Northern Panhandle of West Virginia

CITY           SKY/WX    TMP DP  RH WIND       PRES   REMARKS
WHEELING         N/A     72  67  84 E6        30.02S
$$

WVZ009-241000-
Northwest West Virginia

CITY           SKY/WX    TMP DP  RH WIND       PRES   REMARKS
PARKERSBURG      N/A     72  70  93 CALM      30.03S FOG
$$

WVZ006-241000-
Western West Virginia

CITY           SKY/WX    TMP DP  RH WIND       PRES   REMARKS
HUNTINGTON       N/A     74  72  93 CALM      30.00F FOG
$$

WVZ015-241000-
West Central West Virginia

CITY           SKY/WX    TMP DP  RH WIND       PRES   REMARKS
CHARLESTON     FOG       73  71  93 CALM      30.02R VSB 1/2
$$

WVZ022-031-241000-
North Central West Virginia

CITY           SKY/WX    TMP DP  RH WIND       PRES   REMARKS
CLARKSBURG     MOCLDY    72  70  93 CALM      30.03R
MORGANTOWN       N/A     73  70  90 S5        30.04S FOG
$$

WVZ025-035-042-045-241000-
Southern West Virginia

CITY           SKY/WX    TMP DP  RH WIND       PRES   REMARKS
BECKLEY          N/A     68  66  93 S3        30.11F
LOGAN            N/A     73  72  94 CALM      30.05R
BLUEFIELD        N/A     69  66  90 CALM      30.14S
LEWISBURG        N/A    N/A N/A N/A MISG        N/A
$$

WVZ047-241000-
Northern Mountains of West Virginia

CITY           SKY/WX    TMP DP  RH WIND       PRES   REMARKS
ELKINS         FOG       65  63  93 CALM      30.10S VSB 3/4
$$

WVZ052-241000-
Eastern Panhandle of West Virginia

CITY           SKY/WX    TMP DP  RH WIND       PRES   REMARKS
MARTINSBURG      N/A     69  67  93 SE3       29.98S
PETERSBURG       N/A     68  67  98 CALM      30.02S FOG
$$




USA.gov is the U.S. government's official web portal to all federal, state and local government web resources and services.